CAL722 WMKK-RCTP

Flight info

Callsign CAL722
Flight time 4h 12m
Altitude 29000
Route KIMAT1D KIMAT Y344 VPK M758 LUSMO/N0487F350 L625 ABVAR M646 POTIB Q14 TNN TNN1A
Aircraft B77W/H-SDE1E2E3FGHIJ1J2J3J5M1P2RWY/LB1D1

Departure

Time 2026-05-07 15:08
Airport Kuala Lumpur International Airport (WMKK)

Arrival

Time 2026-05-07 19:21
Airport Taiwan Taoyuan International Airport (RCTP)
Time Latitude Longitude Altitude Speed Heading
2026-05-07 14:43 2.74517 101.71457 77 ft 0 kts 56°
2026-05-07 14:58 2.74516 101.71456 66 ft 2 kts 56°
2026-05-07 14:58 2.74503 101.71435 77 ft 4 kts 57°
2026-05-07 14:58 2.74488 101.71413 77 ft 3 kts 57°
2026-05-07 14:59 2.74479 101.71394 66 ft 4 kts 116°
2026-05-07 14:59 2.74496 101.71382 66 ft 4 kts 159°
2026-05-07 14:59 2.74513 101.71375 77 ft 0 kts 146°
2026-05-07 15:02 2.74512 101.71376 77 ft 1 kts 146°
2026-05-07 15:02 2.74502 101.71382 77 ft 3 kts 146°
2026-05-07 15:02 2.74483 101.71395 69 ft 4 kts 146°
2026-05-07 15:03 2.74454 101.71415 71 ft 6 kts 146°
2026-05-07 15:03 2.74416 101.71440 70 ft 7 kts 146°
2026-05-07 15:03 2.74375 101.71476 68 ft 8 kts 114°
2026-05-07 15:03 2.74392 101.71530 69 ft 9 kts 56°
2026-05-07 15:04 2.74429 101.71585 70 ft 10 kts 56°
2026-05-07 15:04 2.74470 101.71646 78 ft 11 kts 56°
2026-05-07 15:04 2.74515 101.71713 66 ft 12 kts 56°
2026-05-07 15:04 2.74563 101.71785 69 ft 13 kts 56°
2026-05-07 15:05 2.74615 101.71863 67 ft 14 kts 56°
2026-05-07 15:05 2.74648 101.71913 70 ft 7 kts 57°
2026-05-07 15:05 2.74676 101.71956 80 ft 7 kts 56°
2026-05-07 15:05 2.74705 101.71999 88 ft 7 kts 56°
2026-05-07 15:06 2.74727 101.72031 90 ft 4 kts 56°
2026-05-07 15:06 2.74740 101.72050 84 ft 4 kts 56°
2026-05-07 15:06 2.74760 101.72080 87 ft 7 kts 56°
2026-05-07 15:06 2.74791 101.72125 83 ft 9 kts 56°
2026-05-07 15:07 2.74830 101.72178 87 ft 10 kts 42°
2026-05-07 15:07 2.74896 101.72169 88 ft 11 kts 326°
2026-05-07 15:07 2.75020 101.72084 85 ft 42 kts 326°
2026-05-07 15:07 2.75481 101.71775 82 ft 116 kts 326°
2026-05-07 15:08 2.76335 101.71202 74 ft 176 kts 326°
2026-05-07 15:08 2.77397 101.70476 540 ft 183 kts 327°
2026-05-07 15:08 2.78307 101.69872 1041 ft 187 kts 327°
2026-05-07 15:08 2.79238 101.69254 1440 ft 199 kts 327°
2026-05-07 15:09 2.79959 101.68845 1546 ft 212 kts 338°
2026-05-07 15:09 2.81111 101.68460 1758 ft 230 kts 343°
2026-05-07 15:09 2.82512 101.68003 2047 ft 248 kts 343°
2026-05-07 15:09 2.84162 101.67878 2474 ft 258 kts 15°
2026-05-07 15:10 2.85697 101.68788 3112 ft 263 kts 51°
2026-05-07 15:10 2.86530 101.70392 3754 ft 265 kts 69°
2026-05-07 15:10 2.87235 101.72115 4420 ft 274 kts 67°
2026-05-07 15:10 2.88000 101.73867 5223 ft 277 kts 66°
2026-05-07 15:11 2.88793 101.75638 6046 ft 279 kts 66°
2026-05-07 15:11 2.89593 101.77411 6792 ft 281 kts 66°
2026-05-07 15:11 2.90405 101.79201 7528 ft 284 kts 66°
2026-05-07 15:11 2.91228 101.81008 8273 ft 286 kts 66°
2026-05-07 15:12 2.92045 101.82794 8998 ft 289 kts 66°
2026-05-07 15:12 2.92889 101.84634 9737 ft 292 kts 65°
2026-05-07 15:12 2.93743 101.86488 10373 ft 297 kts 65°
2026-05-07 15:12 2.94642 101.88438 10611 ft 321 kts 65°
2026-05-07 15:13 2.95611 101.90538 10803 ft 345 kts 65°
2026-05-07 15:13 2.96646 101.92780 11178 ft 361 kts 65°
2026-05-07 15:13 2.97711 101.95085 11875 ft 369 kts 65°
2026-05-07 15:13 2.98792 101.97422 12797 ft 372 kts 65°
2026-05-07 15:14 2.99884 101.99767 13824 ft 371 kts 65°
2026-05-07 15:14 3.00971 102.02118 14643 ft 374 kts 66°
2026-05-07 15:14 3.02052 102.04466 15299 ft 380 kts 66°
2026-05-07 15:14 3.03165 102.06882 15950 ft 386 kts 66°
2026-05-07 15:15 3.04298 102.09335 16664 ft 390 kts 66°
2026-05-07 15:15 3.05427 102.11778 17380 ft 393 kts 66°
2026-05-07 15:15 3.06578 102.14269 18090 ft 397 kts 66°
2026-05-07 15:15 3.07743 102.16788 18686 ft 401 kts 66°
2026-05-07 15:16 3.08921 102.19338 19260 ft 405 kts 66°
2026-05-07 15:16 3.10109 102.21910 19860 ft 408 kts 66°
2026-05-07 15:16 3.11306 102.24503 20456 ft 412 kts 66°
2026-05-07 15:16 3.12511 102.27110 21032 ft 415 kts 66°
2026-05-07 15:17 3.13730 102.29749 21582 ft 420 kts 66°
2026-05-07 15:17 3.14958 102.32409 22132 ft 423 kts 66°
2026-05-07 15:17 3.16065 102.35150 22686 ft 426 kts 71°
2026-05-07 15:17 3.16886 102.37995 23231 ft 429 kts 78°
2026-05-07 15:18 3.17493 102.40904 23699 ft 432 kts 79°
2026-05-07 15:18 3.18099 102.43860 24101 ft 437 kts 79°
2026-05-07 15:18 3.18714 102.46849 24525 ft 440 kts 79°
2026-05-07 15:18 3.19336 102.49848 24982 ft 442 kts 78°
2026-05-07 15:19 3.19960 102.52835 25422 ft 445 kts 78°
2026-05-07 15:19 3.20602 102.55887 25866 ft 448 kts 78°
2026-05-07 15:19 3.21248 102.58949 26296 ft 450 kts 78°
2026-05-07 15:19 3.21897 102.62019 26727 ft 453 kts 78°
2026-05-07 15:20 3.22546 102.65078 27119 ft 457 kts 78°
2026-05-07 15:20 3.22990 102.67181 27379 ft 459 kts 78°
2026-05-07 15:20 3.23869 102.71341 27905 ft 463 kts 78°
2026-05-07 15:20 3.24535 102.74497 28362 ft 464 kts 78°
2026-05-07 15:21 3.25203 102.77658 28858 ft 465 kts 78°
2026-05-07 15:21 3.25660 102.79816 28869 ft 471 kts 78°
2026-05-07 15:21 3.27010 102.86198 28862 ft 466 kts 78°
2026-05-07 15:22 3.28343 102.92511 28857 ft 463 kts 78°
2026-05-07 15:22 3.29676 102.98823 28863 ft 464 kts 78°
2026-05-07 15:23 3.31011 103.05149 28863 ft 465 kts 78°
2026-05-07 15:23 3.32340 103.11442 28863 ft 466 kts 78°
2026-05-07 15:24 3.33677 103.17782 28856 ft 466 kts 78°
2026-05-07 15:24 3.35017 103.24138 28860 ft 467 kts 78°
2026-05-07 15:25 3.36355 103.30491 28855 ft 467 kts 78°
2026-05-07 15:25 3.37693 103.36846 28859 ft 466 kts 78°
2026-05-07 15:26 3.38874 103.43213 28854 ft 466 kts 84°
2026-05-07 15:26 3.39175 103.49683 28858 ft 465 kts 88°
2026-05-07 15:27 3.39396 103.56148 28858 ft 464 kts 88°
2026-05-07 15:27 3.39649 103.62602 28858 ft 465 kts 88°
2026-05-07 15:28 3.39916 103.69066 28860 ft 465 kts 88°
2026-05-07 15:28 3.40185 103.75536 28860 ft 465 kts 88°
2026-05-07 15:29 3.40453 103.82009 28869 ft 466 kts 88°
2026-05-07 15:29 3.40718 103.88483 28874 ft 465 kts 88°
2026-05-07 15:30 3.40990 103.94923 28870 ft 462 kts 88°
2026-05-07 15:30 3.41306 104.01315 28868 ft 459 kts 87°
2026-05-07 15:31 3.41625 104.07685 28865 ft 457 kts 87°
2026-05-07 15:31 3.41937 104.14039 28869 ft 457 kts 87°
2026-05-07 15:32 3.42259 104.20354 28871 ft 458 kts 87°
2026-05-07 15:32 3.42586 104.26723 28870 ft 459 kts 87°
2026-05-07 15:33 3.42912 104.33117 28868 ft 460 kts 87°
2026-05-07 15:33 3.43238 104.39519 28871 ft 462 kts 87°
2026-05-07 15:34 3.43563 104.45945 28870 ft 462 kts 87°
2026-05-07 15:34 3.43888 104.52368 28872 ft 462 kts 87°
2026-05-07 15:35 3.44218 104.58792 28873 ft 461 kts 87°
2026-05-07 15:35 3.44548 104.65193 28872 ft 461 kts 87°
2026-05-07 15:36 3.44877 104.71591 28874 ft 460 kts 87°
2026-05-07 15:36 3.45205 104.77988 28870 ft 460 kts 87°
2026-05-07 15:37 3.45532 104.84370 28870 ft 459 kts 87°
2026-05-07 15:37 3.45859 104.90754 28873 ft 459 kts 87°
2026-05-07 15:38 3.46186 104.97141 28872 ft 460 kts 87°
2026-05-07 15:38 3.46510 105.03533 28875 ft 460 kts 87°
2026-05-07 15:39 3.46835 105.09885 28878 ft 461 kts 87°
2026-05-07 15:39 3.47162 105.16302 28874 ft 462 kts 87°
2026-05-07 15:40 3.47489 105.22729 28877 ft 462 kts 87°
2026-05-07 15:40 3.47815 105.29158 28873 ft 462 kts 87°
2026-05-07 15:41 3.48138 105.35583 28873 ft 462 kts 87°
2026-05-07 15:41 3.48462 105.41993 28874 ft 461 kts 87°
2026-05-07 15:42 3.48787 105.48406 28874 ft 461 kts 87°
2026-05-07 15:42 3.49110 105.54807 28873 ft 460 kts 87°
2026-05-07 15:43 3.49433 105.61207 28874 ft 460 kts 87°
2026-05-07 15:43 3.49753 105.67605 28873 ft 461 kts 87°
2026-05-07 15:44 3.50075 105.74013 28876 ft 461 kts 87°
2026-05-07 15:44 3.50394 105.80377 28874 ft 461 kts 87°
2026-05-07 15:45 3.50700 105.86782 28877 ft 461 kts 87°
2026-05-07 15:45 3.51027 105.93227 28876 ft 461 kts 87°
2026-05-07 15:46 3.51528 106.02843 28879 ft 461 kts 87°
2026-05-07 15:47 3.51857 106.09237 28878 ft 460 kts 87°
2026-05-07 15:47 3.52187 106.15640 28872 ft 460 kts 87°
2026-05-07 15:48 3.52513 106.22039 28866 ft 460 kts 87°
2026-05-07 15:48 3.52840 106.28432 28871 ft 460 kts 87°
2026-05-07 15:49 3.53165 106.34828 28875 ft 460 kts 87°
2026-05-07 15:49 3.53489 106.41147 28873 ft 460 kts 87°
2026-05-07 15:50 3.53815 106.47536 28871 ft 459 kts 87°
2026-05-07 15:50 3.54139 106.53911 28870 ft 458 kts 87°
2026-05-07 15:51 3.54464 106.60272 28870 ft 457 kts 87°
2026-05-07 15:51 3.54786 106.66631 28871 ft 457 kts 87°
2026-05-07 15:52 3.55108 106.72995 28875 ft 457 kts 87°
2026-05-07 15:52 3.55430 106.79349 28870 ft 457 kts 87°
2026-05-07 15:53 3.55752 106.85709 28872 ft 457 kts 87°
2026-05-07 15:53 3.57098 106.91831 28866 ft 456 kts 62°
2026-05-07 15:53 3.58922 106.94436 28864 ft 460 kts 49°
2026-05-07 15:54 3.61325 106.96535 28894 ft 461 kts 37°
2026-05-07 15:54 3.66638 107.00198 28856 ft 465 kts 36°
2026-05-07 15:55 3.71997 107.03865 28885 ft 468 kts 36°
2026-05-07 15:55 3.77368 107.07609 28944 ft 479 kts 36°
2026-05-07 15:56 3.82920 107.11527 29163 ft 495 kts 36°
2026-05-07 15:56 3.85744 107.13524 29376 ft 499 kts 36°
2026-05-07 15:56 3.88574 107.15525 29684 ft 500 kts 36°
2026-05-07 15:56 3.91419 107.17535 30080 ft 499 kts 36°
2026-05-07 15:57 3.94253 107.19537 30473 ft 497 kts 36°
2026-05-07 15:57 3.97076 107.21531 30865 ft 496 kts 36°
2026-05-07 15:57 3.99893 107.23523 31220 ft 496 kts 36°
2026-05-07 15:57 4.02719 107.25520 31587 ft 496 kts 36°
2026-05-07 15:58 4.05532 107.27508 31948 ft 496 kts 36°
2026-05-07 15:58 4.08347 107.29498 32326 ft 495 kts 36°
2026-05-07 15:58 4.11158 107.31486 32696 ft 494 kts 36°
2026-05-07 15:58 4.13969 107.33472 33055 ft 494 kts 36°
2026-05-07 15:59 4.16781 107.35461 33427 ft 494 kts 36°
2026-05-07 15:59 4.19579 107.37440 33816 ft 493 kts 36°
2026-05-07 15:59 4.22379 107.39420 34142 ft 492 kts 36°
2026-05-07 15:59 4.25141 107.41374 34483 ft 491 kts 36°
2026-05-07 16:00 4.27953 107.43363 34845 ft 489 kts 36°
2026-05-07 16:00 4.33551 107.47324 34877 ft 493 kts 36°
2026-05-07 16:01 4.39080 107.51234 34869 ft 485 kts 36°
2026-05-07 16:01 4.44564 107.55115 34872 ft 481 kts 36°
2026-05-07 16:02 4.50027 107.58982 34875 ft 480 kts 36°
2026-05-07 16:02 4.55489 107.62849 34876 ft 481 kts 36°
2026-05-07 16:03 4.60968 107.66728 34876 ft 483 kts 36°
2026-05-07 16:03 4.66466 107.70622 34874 ft 485 kts 36°
2026-05-07 16:04 4.71980 107.74527 34874 ft 486 kts 36°
2026-05-07 16:04 4.77508 107.78445 34872 ft 487 kts 36°
2026-05-07 16:05 4.83044 107.82368 34873 ft 487 kts 36°
2026-05-07 16:05 4.87647 107.85631 34870 ft 487 kts 36°
2026-05-07 16:06 4.93175 107.89551 34867 ft 486 kts 36°
2026-05-07 16:06 4.98690 107.93463 34873 ft 486 kts 36°
2026-05-07 16:07 5.04222 107.97359 34871 ft 485 kts 36°
2026-05-07 16:07 5.09745 108.01225 34869 ft 484 kts 36°
2026-05-07 16:08 5.15268 108.05099 34867 ft 484 kts 36°
2026-05-07 16:08 5.20777 108.08970 34866 ft 483 kts 36°
2026-05-07 16:09 5.26280 108.12837 34868 ft 483 kts 36°
2026-05-07 16:09 5.31796 108.16713 34867 ft 484 kts 36°
2026-05-07 16:10 5.37309 108.20590 34867 ft 484 kts 36°
2026-05-07 16:10 5.42824 108.24468 34870 ft 484 kts 36°
2026-05-07 16:11 5.48345 108.28352 34870 ft 485 kts 36°
2026-05-07 16:11 5.53857 108.32231 34867 ft 485 kts 36°
2026-05-07 16:12 5.59272 108.36041 34865 ft 484 kts 36°
2026-05-07 16:12 5.64790 108.39925 34862 ft 484 kts 36°
2026-05-07 16:13 5.70231 108.43755 34866 ft 484 kts 35°
2026-05-07 16:13 5.75749 108.47640 34864 ft 484 kts 35°
2026-05-07 16:14 5.81240 108.51508 34865 ft 484 kts 36°
2026-05-07 16:14 5.86750 108.55390 34866 ft 485 kts 36°
2026-05-07 16:15 5.92285 108.59288 34861 ft 485 kts 36°
2026-05-07 16:15 5.97807 108.63183 34867 ft 485 kts 36°
2026-05-07 16:16 6.03335 108.67082 34864 ft 485 kts 36°
2026-05-07 16:16 6.08858 108.70977 34861 ft 485 kts 36°
2026-05-07 16:17 6.14373 108.74868 34856 ft 485 kts 36°
2026-05-07 16:17 6.19914 108.78777 34869 ft 486 kts 36°
2026-05-07 16:18 6.25440 108.82676 34862 ft 486 kts 36°
2026-05-07 16:18 6.30964 108.86576 34861 ft 485 kts 36°
2026-05-07 16:19 6.36475 108.90468 34858 ft 484 kts 36°
2026-05-07 16:19 6.41947 108.94330 34859 ft 483 kts 36°
2026-05-07 16:20 6.47460 108.98226 34856 ft 482 kts 36°
2026-05-07 16:20 6.52888 109.02060 34855 ft 485 kts 36°
2026-05-07 16:21 6.58420 109.05966 34860 ft 487 kts 36°
2026-05-07 16:21 6.63920 109.09855 34866 ft 491 kts 36°
2026-05-07 16:22 6.69489 109.13810 34864 ft 490 kts 36°
2026-05-07 16:22 6.75014 109.17726 34837 ft 481 kts 36°
2026-05-07 16:23 6.80482 109.21586 34858 ft 481 kts 36°
2026-05-07 16:23 6.85961 109.25445 34864 ft 480 kts 34°
2026-05-07 16:24 6.91454 109.29323 34865 ft 484 kts 35°
2026-05-07 16:24 6.96962 109.33242 34859 ft 487 kts 35°
2026-05-07 16:25 7.02500 109.37178 34859 ft 489 kts 35°
2026-05-07 16:25 7.08057 109.41117 34854 ft 489 kts 35°
2026-05-07 16:26 7.13616 109.45058 34855 ft 488 kts 35°
2026-05-07 16:26 7.19151 109.48983 34873 ft 486 kts 34°
2026-05-07 16:27 7.24672 109.52900 34858 ft 483 kts 34°
2026-05-07 16:27 7.30152 109.56790 34856 ft 481 kts 34°
2026-05-07 16:28 7.35603 109.60658 34856 ft 479 kts 34°
2026-05-07 16:28 7.41004 109.64495 34857 ft 478 kts 34°
2026-05-07 16:29 7.46445 109.68359 34859 ft 479 kts 34°
2026-05-07 16:29 7.51894 109.72229 34858 ft 480 kts 34°
2026-05-07 16:30 7.57354 109.76109 34856 ft 481 kts 34°
2026-05-07 16:30 7.62824 109.79998 34861 ft 481 kts 34°
2026-05-07 16:31 7.68280 109.83880 34861 ft 482 kts 34°
2026-05-07 16:31 7.73756 109.87775 34861 ft 482 kts 34°
2026-05-07 16:32 7.79225 109.91666 34858 ft 482 kts 34°
2026-05-07 16:32 7.84703 109.95567 34860 ft 482 kts 34°
2026-05-07 16:33 7.90182 109.99469 34866 ft 482 kts 34°
2026-05-07 16:33 7.95662 110.03372 34861 ft 482 kts 34°
2026-05-07 16:34 8.01145 110.07280 34864 ft 482 kts 34°
2026-05-07 16:34 8.06610 110.11175 34863 ft 482 kts 34°
2026-05-07 16:35 8.12050 110.15055 34868 ft 482 kts 34°
2026-05-07 16:35 8.17527 110.18964 34863 ft 482 kts 34°
2026-05-07 16:36 8.23003 110.22873 34860 ft 482 kts 34°
2026-05-07 16:36 8.28467 110.26800 34865 ft 483 kts 34°
2026-05-07 16:37 8.33943 110.30749 34863 ft 484 kts 34°
2026-05-07 16:37 8.39427 110.34704 34865 ft 485 kts 34°
2026-05-07 16:38 8.44916 110.38659 34866 ft 485 kts 34°
2026-05-07 16:38 8.50416 110.42624 34863 ft 485 kts 34°
2026-05-07 16:39 8.55911 110.46588 34861 ft 485 kts 34°
2026-05-07 16:39 8.61400 110.50550 34864 ft 485 kts 34°
2026-05-07 16:40 8.66893 110.54512 34865 ft 485 kts 34°
2026-05-07 16:40 8.72385 110.58479 34862 ft 485 kts 34°
2026-05-07 16:41 8.77863 110.62436 34864 ft 484 kts 34°
2026-05-07 16:41 8.83339 110.66392 34861 ft 484 kts 34°
2026-05-07 16:42 8.88781 110.70328 34862 ft 484 kts 34°
2026-05-07 16:42 8.94261 110.74289 34867 ft 484 kts 34°
2026-05-07 16:43 8.99721 110.78238 34867 ft 484 kts 34°
2026-05-07 16:43 9.05068 110.82110 34870 ft 484 kts 34°
2026-05-07 16:44 9.10511 110.86050 34870 ft 485 kts 34°
2026-05-07 16:44 9.15775 110.89860 34867 ft 484 kts 34°
2026-05-07 16:45 9.21121 110.93733 34866 ft 484 kts 33°
2026-05-07 16:45 9.26438 110.97587 34869 ft 484 kts 33°
2026-05-07 16:46 9.31834 111.01502 34870 ft 484 kts 33°
2026-05-07 16:46 9.37309 111.05471 34868 ft 484 kts 33°
2026-05-07 16:47 9.42778 111.09440 34871 ft 484 kts 33°
2026-05-07 16:47 9.48254 111.13415 34868 ft 484 kts 33°
2026-05-07 16:48 9.53729 111.17393 34869 ft 484 kts 33°
2026-05-07 16:48 9.59202 111.21368 34869 ft 484 kts 33°
2026-05-07 16:49 9.64649 111.25331 34870 ft 485 kts 33°
2026-05-07 16:49 9.70127 111.29315 34868 ft 485 kts 33°
2026-05-07 16:50 9.75603 111.33300 34865 ft 485 kts 33°
2026-05-07 16:50 9.81075 111.37286 34869 ft 485 kts 33°
2026-05-07 16:51 9.86559 111.41281 34871 ft 485 kts 33°
2026-05-07 16:51 9.92018 111.45258 34871 ft 485 kts 33°
2026-05-07 16:52 9.96616 111.48612 34874 ft 485 kts 33°
2026-05-07 16:52 10.02054 111.52579 34872 ft 485 kts 33°
2026-05-07 16:53 10.07528 111.56573 34872 ft 485 kts 33°
2026-05-07 16:53 10.13010 111.60574 34872 ft 485 kts 33°
2026-05-07 16:54 10.18482 111.64571 34872 ft 485 kts 33°
2026-05-07 16:54 10.23953 111.68569 34871 ft 484 kts 34°
2026-05-07 16:55 10.29423 111.72567 34871 ft 485 kts 34°
2026-05-07 16:55 10.34889 111.76565 34872 ft 485 kts 34°
2026-05-07 16:56 10.40359 111.80566 34877 ft 485 kts 34°
2026-05-07 16:56 10.48567 111.86576 34876 ft 484 kts 34°
2026-05-07 16:57 10.54030 111.90576 34877 ft 484 kts 34°
2026-05-07 16:57 10.59503 111.94587 34878 ft 484 kts 34°
2026-05-07 16:58 10.64967 111.98593 34878 ft 484 kts 34°
2026-05-07 16:58 10.70427 112.02597 34879 ft 484 kts 34°
2026-05-07 16:59 10.75858 112.06583 34876 ft 484 kts 34°
2026-05-07 16:59 10.81318 112.10592 34878 ft 484 kts 34°
2026-05-07 17:00 10.86769 112.14595 34883 ft 484 kts 34°
2026-05-07 17:00 10.92229 112.18608 34884 ft 484 kts 34°
2026-05-07 17:01 10.97685 112.22610 34883 ft 483 kts 34°
2026-05-07 17:01 11.03116 112.26570 34880 ft 483 kts 34°
2026-05-07 17:02 11.08578 112.30551 34880 ft 483 kts 34°
2026-05-07 17:02 11.14042 112.34538 34879 ft 483 kts 34°
2026-05-07 17:03 11.19506 112.38530 34882 ft 483 kts 34°
2026-05-07 17:03 11.24968 112.42523 34878 ft 483 kts 34°
2026-05-07 17:04 11.30417 112.46510 34883 ft 482 kts 34°
2026-05-07 17:04 11.35862 112.50493 34885 ft 482 kts 34°
2026-05-07 17:05 11.41310 112.54484 34880 ft 482 kts 34°
2026-05-07 17:05 11.46757 112.58473 34884 ft 482 kts 34°
2026-05-07 17:06 11.52190 112.62466 34882 ft 482 kts 34°
2026-05-07 17:06 11.57621 112.66471 34884 ft 482 kts 34°
2026-05-07 17:07 11.63053 112.70478 34881 ft 482 kts 34°
2026-05-07 17:07 11.68487 112.74488 34878 ft 482 kts 34°
2026-05-07 17:08 11.73912 112.78496 34883 ft 482 kts 34°
2026-05-07 17:08 11.79336 112.82501 34880 ft 482 kts 34°
2026-05-07 17:09 11.84763 112.86511 34883 ft 481 kts 34°
2026-05-07 17:09 11.90178 112.90515 34885 ft 480 kts 34°
2026-05-07 17:10 11.95595 112.94522 34889 ft 480 kts 34°
2026-05-07 17:10 12.01003 112.98525 34886 ft 480 kts 34°
2026-05-07 17:11 12.06399 113.02518 34887 ft 479 kts 34°
2026-05-07 17:11 12.11800 113.06521 34867 ft 480 kts 34°
2026-05-07 17:12 12.17198 113.10523 34885 ft 479 kts 34°
2026-05-07 17:12 12.22594 113.14526 34885 ft 479 kts 34°
2026-05-07 17:13 12.27993 113.18532 34869 ft 479 kts 34°
2026-05-07 17:13 12.33395 113.22543 34884 ft 479 kts 34°
2026-05-07 17:14 12.38780 113.26540 34888 ft 479 kts 34°
2026-05-07 17:14 12.44146 113.30518 34886 ft 479 kts 34°
2026-05-07 17:15 12.49546 113.34520 34887 ft 479 kts 34°
2026-05-07 17:15 12.54948 113.38530 34886 ft 479 kts 34°
2026-05-07 17:16 12.60339 113.42534 34878 ft 479 kts 34°
2026-05-07 17:16 12.65763 113.46565 34877 ft 479 kts 34°
2026-05-07 17:17 12.71117 113.50546 34891 ft 478 kts 34°
2026-05-07 17:17 12.76501 113.54549 34876 ft 478 kts 34°
2026-05-07 17:18 12.81912 113.58575 34888 ft 478 kts 34°
2026-05-07 17:18 12.87247 113.62548 34888 ft 478 kts 34°
2026-05-07 17:19 12.92621 113.66553 34889 ft 478 kts 34°
2026-05-07 17:19 12.98005 113.70567 34889 ft 478 kts 34°
2026-05-07 17:20 13.03370 113.74568 34873 ft 479 kts 34°
2026-05-07 17:20 13.08752 113.78585 34873 ft 479 kts 34°
2026-05-07 17:21 13.14135 113.82604 34879 ft 479 kts 34°
2026-05-07 17:21 13.19504 113.86616 34876 ft 479 kts 34°
2026-05-07 17:22 13.24890 113.90643 34876 ft 479 kts 34°
2026-05-07 17:22 13.30268 113.94665 34890 ft 479 kts 34°
2026-05-07 17:23 13.35643 113.98688 34877 ft 478 kts 34°
2026-05-07 17:23 13.41026 114.02719 34879 ft 479 kts 34°
2026-05-07 17:24 13.46402 114.06745 34880 ft 478 kts 34°
2026-05-07 17:24 13.51782 114.10779 34878 ft 478 kts 34°
2026-05-07 17:25 13.57153 114.14808 34893 ft 478 kts 34°
2026-05-07 17:25 13.62519 114.18836 34879 ft 478 kts 34°
2026-05-07 17:26 13.67887 114.22867 34884 ft 478 kts 34°
2026-05-07 17:26 13.73248 114.26893 34884 ft 477 kts 34°
2026-05-07 17:27 13.78607 114.30924 34889 ft 477 kts 34°
2026-05-07 17:27 13.83967 114.34957 34883 ft 478 kts 34°
2026-05-07 17:28 13.89331 114.38994 34889 ft 477 kts 34°
2026-05-07 17:28 13.94695 114.43036 34886 ft 478 kts 34°
2026-05-07 17:29 13.99730 114.47498 34879 ft 480 kts 45°
2026-05-07 17:29 14.04295 114.52519 34882 ft 480 kts 45°
2026-05-07 17:30 14.08861 114.57557 34887 ft 481 kts 45°
2026-05-07 17:30 14.13409 114.62539 34886 ft 481 kts 45°
2026-05-07 17:31 14.18000 114.67549 34889 ft 481 kts 45°
2026-05-07 17:31 14.22595 114.72561 34883 ft 481 kts 45°
2026-05-07 17:32 14.27187 114.77573 34883 ft 481 kts 45°
2026-05-07 17:32 14.31003 114.81742 34887 ft 481 kts 45°
2026-05-07 17:33 14.36367 114.87606 34883 ft 480 kts 45°
2026-05-07 17:33 14.40951 114.92621 34884 ft 480 kts 45°
2026-05-07 17:34 14.45529 114.97632 34888 ft 480 kts 45°
2026-05-07 17:34 14.50111 115.02653 34886 ft 480 kts 45°
2026-05-07 17:35 14.53913 115.06821 34885 ft 480 kts 45°
2026-05-07 17:35 14.59236 115.12658 34884 ft 480 kts 45°
2026-05-07 17:36 14.63817 115.17686 34881 ft 481 kts 45°
2026-05-07 17:36 14.68396 115.22715 34884 ft 481 kts 45°
2026-05-07 17:37 14.72231 115.26930 34878 ft 481 kts 45°
2026-05-07 17:37 14.76812 115.31967 34878 ft 481 kts 45°
2026-05-07 17:38 14.81361 115.36975 34885 ft 481 kts 45°
2026-05-07 17:38 14.85934 115.42009 34883 ft 481 kts 45°
2026-05-07 17:39 14.90537 115.47080 34881 ft 480 kts 45°
2026-05-07 17:39 14.95076 115.52085 34878 ft 480 kts 45°
2026-05-07 17:40 14.99629 115.57107 34881 ft 479 kts 45°
2026-05-07 17:40 15.04159 115.62110 34878 ft 479 kts 45°
2026-05-07 17:41 15.08706 115.67135 34880 ft 478 kts 45°
2026-05-07 17:41 15.13257 115.72165 34876 ft 478 kts 45°
2026-05-07 17:42 15.17806 115.77195 34875 ft 478 kts 45°
2026-05-07 17:42 15.22341 115.82217 34878 ft 478 kts 45°
2026-05-07 17:43 15.26885 115.87253 34878 ft 478 kts 45°
2026-05-07 17:43 15.31426 115.92285 34877 ft 478 kts 45°
2026-05-07 17:44 15.35971 115.97327 34881 ft 478 kts 45°
2026-05-07 17:44 15.40515 116.02370 34872 ft 478 kts 45°
2026-05-07 17:45 15.45050 116.07407 34872 ft 479 kts 45°
2026-05-07 17:45 15.49592 116.12455 34875 ft 479 kts 45°
2026-05-07 17:46 15.54136 116.17507 34874 ft 479 kts 45°
2026-05-07 17:46 15.58674 116.22561 34874 ft 479 kts 45°
2026-05-07 17:47 15.63211 116.27616 34876 ft 479 kts 46°
2026-05-07 17:47 15.67755 116.32681 34876 ft 479 kts 46°
2026-05-07 17:48 15.72290 116.37741 34872 ft 479 kts 46°
2026-05-07 17:48 15.76797 116.42770 34874 ft 479 kts 46°
2026-05-07 17:49 15.81375 116.47883 34874 ft 480 kts 46°
2026-05-07 17:49 15.85885 116.52923 34874 ft 480 kts 46°
2026-05-07 17:50 15.90426 116.58001 34873 ft 480 kts 46°
2026-05-07 17:50 15.94963 116.63081 34874 ft 480 kts 46°
2026-05-07 17:51 15.99532 116.68202 34871 ft 480 kts 46°
2026-05-07 17:51 16.04042 116.73258 34874 ft 480 kts 46°
2026-05-07 17:52 16.08580 116.78348 34875 ft 480 kts 46°
2026-05-07 17:52 16.13123 116.83448 34874 ft 480 kts 46°
2026-05-07 17:53 16.17665 116.88552 34878 ft 480 kts 46°
2026-05-07 17:53 16.22200 116.93651 34874 ft 480 kts 46°
2026-05-07 17:54 16.26737 116.98754 34876 ft 480 kts 45°
2026-05-07 17:54 16.31256 117.03843 34874 ft 481 kts 45°
2026-05-07 17:55 16.35790 117.08952 34872 ft 481 kts 45°
2026-05-07 17:55 16.40329 117.14072 34868 ft 481 kts 46°
2026-05-07 17:56 16.44860 117.19184 34871 ft 481 kts 45°
2026-05-07 17:56 16.49394 117.24303 34872 ft 481 kts 45°
2026-05-07 17:57 16.53164 117.28563 34871 ft 481 kts 45°
2026-05-07 17:57 16.58468 117.34564 34873 ft 481 kts 45°
2026-05-07 17:58 16.63005 117.39698 34871 ft 481 kts 45°
2026-05-07 17:58 16.67534 117.44831 34872 ft 481 kts 45°
2026-05-07 17:59 16.72007 117.49904 34871 ft 481 kts 45°
2026-05-07 17:59 16.76483 117.54984 34868 ft 481 kts 45°
2026-05-07 18:00 16.81015 117.60131 34872 ft 481 kts 45°
2026-05-07 18:00 16.85546 117.65281 34871 ft 482 kts 45°
2026-05-07 18:01 16.90074 117.70431 34870 ft 482 kts 45°
2026-05-07 18:01 16.94610 117.75592 34868 ft 482 kts 45°
2026-05-07 18:02 17.01381 117.83305 34865 ft 482 kts 46°
2026-05-07 18:03 17.05908 117.88471 34869 ft 482 kts 46°
2026-05-07 18:03 17.10434 117.93636 34869 ft 482 kts 46°
2026-05-07 18:04 17.14965 117.98811 34871 ft 482 kts 46°
2026-05-07 18:04 17.19488 118.03981 34867 ft 482 kts 46°
2026-05-07 18:05 17.24018 118.09164 34865 ft 482 kts 45°
2026-05-07 18:05 17.28539 118.14341 34870 ft 482 kts 45°
2026-05-07 18:06 17.33062 118.19522 34871 ft 482 kts 45°
2026-05-07 18:06 17.37584 118.24708 34868 ft 482 kts 45°
2026-05-07 18:07 17.42102 118.29892 34871 ft 482 kts 46°
2026-05-07 18:07 17.46619 118.35080 34868 ft 482 kts 46°
2026-05-07 18:08 17.51135 118.40272 34864 ft 482 kts 45°
2026-05-07 18:08 17.55371 118.45144 34867 ft 482 kts 45°
2026-05-07 18:09 17.59154 118.49498 34869 ft 482 kts 45°
2026-05-07 18:09 17.63092 118.54034 34865 ft 483 kts 45°
2026-05-07 18:10 17.67481 118.59094 34868 ft 483 kts 45°
2026-05-07 18:10 17.72032 118.64346 34865 ft 483 kts 45°
2026-05-07 18:11 17.76517 118.69524 34864 ft 483 kts 45°
2026-05-07 18:11 17.81057 118.74771 34867 ft 483 kts 45°
2026-05-07 18:12 17.85573 118.79994 34866 ft 483 kts 45°
2026-05-07 18:12 17.90064 118.85192 34865 ft 483 kts 45°
2026-05-07 18:13 17.94578 118.90422 34863 ft 483 kts 45°
2026-05-07 18:13 17.99088 118.95651 34866 ft 483 kts 46°
2026-05-07 18:14 18.03605 119.00886 34868 ft 484 kts 45°
2026-05-07 18:14 18.08129 119.06133 34868 ft 484 kts 46°
2026-05-07 18:15 18.12644 119.11374 34863 ft 484 kts 46°
2026-05-07 18:15 18.17154 119.16615 34863 ft 483 kts 46°
2026-05-07 18:16 18.21663 119.21861 34866 ft 483 kts 46°
2026-05-07 18:16 18.26173 119.27111 34862 ft 484 kts 46°
2026-05-07 18:17 18.30683 119.32364 34865 ft 484 kts 46°
2026-05-07 18:17 18.35195 119.37626 34870 ft 484 kts 46°
2026-05-07 18:18 18.39701 119.42883 34860 ft 484 kts 46°
2026-05-07 18:18 18.44203 119.48143 34865 ft 483 kts 46°
2026-05-07 18:19 18.48886 119.53131 34853 ft 480 kts 36°
2026-05-07 18:19 18.54535 119.56882 34862 ft 476 kts 23°
2026-05-07 18:20 18.60542 119.59728 34873 ft 476 kts 22°
2026-05-07 18:20 18.66610 119.62556 34861 ft 477 kts 22°
2026-05-07 18:21 18.71683 119.64949 34872 ft 477 kts 22°
2026-05-07 18:21 18.77742 119.67839 34870 ft 477 kts 22°
2026-05-07 18:22 18.84805 119.71222 34865 ft 477 kts 22°
2026-05-07 18:22 18.90806 119.74097 34870 ft 477 kts 23°
2026-05-07 18:23 18.96843 119.76992 34871 ft 477 kts 22°
2026-05-07 18:23 19.02888 119.79891 34873 ft 477 kts 23°
2026-05-07 18:24 19.07899 119.82297 34876 ft 476 kts 23°
2026-05-07 18:24 19.13935 119.85199 34880 ft 477 kts 23°
2026-05-07 18:25 19.19973 119.88103 34873 ft 477 kts 23°
2026-05-07 18:25 19.26023 119.91015 34878 ft 478 kts 23°
2026-05-07 18:26 19.32081 119.93932 34879 ft 478 kts 23°
2026-05-07 18:26 19.38136 119.96851 34879 ft 478 kts 23°
2026-05-07 18:27 19.44193 119.99773 34878 ft 478 kts 23°
2026-05-07 18:27 19.50234 120.02687 34881 ft 478 kts 23°
2026-05-07 18:28 19.56296 120.05618 34886 ft 478 kts 23°
2026-05-07 18:28 19.62347 120.08544 34885 ft 478 kts 23°
2026-05-07 18:29 19.68390 120.11468 34888 ft 478 kts 23°
2026-05-07 18:29 19.74454 120.14408 34885 ft 479 kts 23°
2026-05-07 18:30 19.80469 120.17324 34887 ft 479 kts 23°
2026-05-07 18:30 19.86536 120.20268 34891 ft 479 kts 23°
2026-05-07 18:31 19.92601 120.23213 34897 ft 479 kts 23°
2026-05-07 18:31 19.98669 120.26162 34894 ft 480 kts 23°
2026-05-07 18:32 20.04755 120.29123 34891 ft 481 kts 23°
2026-05-07 18:32 20.10832 120.32082 34897 ft 481 kts 23°
2026-05-07 18:33 20.16924 120.35050 34899 ft 481 kts 23°
2026-05-07 18:33 20.23007 120.38018 34897 ft 481 kts 23°
2026-05-07 18:34 20.29101 120.40993 34896 ft 482 kts 23°
2026-05-07 18:34 20.35195 120.43971 34899 ft 482 kts 23°
2026-05-07 18:35 20.41287 120.46947 34899 ft 482 kts 23°
2026-05-07 18:35 20.47381 120.49932 34900 ft 482 kts 23°
2026-05-07 18:36 20.53480 120.52919 34903 ft 483 kts 23°
2026-05-07 18:36 20.59557 120.55899 34899 ft 483 kts 23°
2026-05-07 18:37 20.65661 120.58895 34903 ft 483 kts 23°
2026-05-07 18:37 20.71773 120.61897 34902 ft 483 kts 23°
2026-05-07 18:38 20.77880 120.64899 34906 ft 484 kts 22°
2026-05-07 18:38 20.83921 120.67873 34909 ft 484 kts 22°
2026-05-07 18:39 20.90005 120.70869 34911 ft 484 kts 22°
2026-05-07 18:39 20.96143 120.73840 34907 ft 482 kts 18°
2026-05-07 18:39 20.99410 120.74732 34916 ft 478 kts
2026-05-07 18:40 21.02696 120.74919 34917 ft 476 kts 355°
2026-05-07 18:40 21.09155 120.73631 34924 ft 472 kts 344°
2026-05-07 18:41 21.15477 120.71911 34913 ft 473 kts 344°
2026-05-07 18:41 21.21870 120.70230 34915 ft 473 kts 345°
2026-05-07 18:42 21.28269 120.68591 34911 ft 473 kts 345°
2026-05-07 18:42 21.34673 120.66960 34922 ft 472 kts 345°
2026-05-07 18:43 21.41056 120.65330 34913 ft 472 kts 345°
2026-05-07 18:43 21.47432 120.63696 34913 ft 470 kts 345°
2026-05-07 18:44 21.53791 120.62067 34914 ft 470 kts 345°
2026-05-07 18:44 21.60146 120.60440 34922 ft 469 kts 345°
2026-05-07 18:45 21.66500 120.58819 34910 ft 469 kts 344°
2026-05-07 18:45 21.72844 120.57198 34922 ft 468 kts 344°
2026-05-07 18:46 21.79180 120.55575 34916 ft 468 kts 344°
2026-05-07 18:46 21.85471 120.53954 34915 ft 468 kts 344°
2026-05-07 18:47 21.91806 120.52317 34922 ft 468 kts 344°
2026-05-07 18:47 21.98130 120.50679 34919 ft 468 kts 344°
2026-05-07 18:48 22.04454 120.49042 34926 ft 467 kts 344°
2026-05-07 18:48 22.10772 120.47403 34921 ft 467 kts 344°
2026-05-07 18:49 22.17091 120.45764 34926 ft 467 kts 344°
2026-05-07 18:49 22.23385 120.44131 34927 ft 466 kts 344°
2026-05-07 18:50 22.29700 120.42490 34926 ft 466 kts 344°
2026-05-07 18:50 22.36002 120.40850 34923 ft 464 kts 344°
2026-05-07 18:51 22.42182 120.39244 34719 ft 450 kts 343°
2026-05-07 18:51 22.45220 120.38454 34424 ft 448 kts 343°
2026-05-07 18:51 22.48251 120.37663 34027 ft 449 kts 343°
2026-05-07 18:51 22.51285 120.36871 33553 ft 450 kts 343°
2026-05-07 18:52 22.54330 120.36075 33157 ft 449 kts 343°
2026-05-07 18:52 22.57316 120.35296 32850 ft 446 kts 343°
2026-05-07 18:52 22.60343 120.34506 32405 ft 443 kts 343°
2026-05-07 18:52 22.63324 120.33727 31914 ft 440 kts 343°
2026-05-07 18:53 22.66290 120.32953 31429 ft 437 kts 343°
2026-05-07 18:53 22.69241 120.32181 30944 ft 434 kts 343°
2026-05-07 18:53 22.72168 120.31413 30465 ft 432 kts 343°
2026-05-07 18:53 22.75092 120.30648 29974 ft 431 kts 343°
2026-05-07 18:54 22.77999 120.29899 29516 ft 428 kts 345°
2026-05-07 18:54 22.83837 120.29442 29628 ft 429 kts 358°
2026-05-07 18:54 22.86856 120.29735 29643 ft 442 kts
2026-05-07 18:55 22.89901 120.30234 29645 ft 444 kts
2026-05-07 18:55 22.95977 120.31326 29636 ft 442 kts
2026-05-07 18:56 23.01982 120.32405 29636 ft 440 kts
2026-05-07 18:56 23.08062 120.33466 29633 ft 438 kts
2026-05-07 18:57 23.14073 120.34500 29599 ft 436 kts
2026-05-07 18:57 23.20071 120.35530 29097 ft 438 kts
2026-05-07 18:57 23.23056 120.36041 28783 ft 443 kts
2026-05-07 18:58 23.26114 120.36566 28490 ft 447 kts
2026-05-07 18:58 23.29176 120.37093 28197 ft 446 kts
2026-05-07 18:58 23.32241 120.37622 27889 ft 444 kts
2026-05-07 18:58 23.35278 120.38147 27600 ft 442 kts
2026-05-07 18:59 23.38317 120.38672 27289 ft 439 kts
2026-05-07 18:59 23.41323 120.39191 27007 ft 437 kts
2026-05-07 18:59 23.44319 120.39707 26732 ft 435 kts
2026-05-07 18:59 23.47295 120.40222 26448 ft 433 kts
2026-05-07 19:00 23.50266 120.40735 26157 ft 431 kts
2026-05-07 19:00 23.53220 120.41245 25876 ft 429 kts
2026-05-07 19:00 23.56171 120.41755 25603 ft 428 kts
2026-05-07 19:00 23.59101 120.42262 25321 ft 426 kts
2026-05-07 19:01 23.62033 120.42768 25054 ft 425 kts
2026-05-07 19:01 23.64948 120.43273 24794 ft 423 kts
2026-05-07 19:01 23.67845 120.43775 24519 ft 422 kts
2026-05-07 19:01 23.70741 120.44278 24253 ft 421 kts
2026-05-07 19:02 23.73626 120.44778 23990 ft 419 kts
2026-05-07 19:02 23.76508 120.45277 23734 ft 418 kts
2026-05-07 19:02 23.79379 120.45775 23453 ft 417 kts
2026-05-07 19:02 23.82233 120.46271 23146 ft 415 kts
2026-05-07 19:03 23.85084 120.46766 22853 ft 413 kts
2026-05-07 19:03 23.87916 120.47258 22550 ft 412 kts
2026-05-07 19:03 23.90738 120.47749 22243 ft 409 kts
2026-05-07 19:03 23.93546 120.48238 21928 ft 407 kts
2026-05-07 19:04 23.96330 120.48722 21639 ft 405 kts
2026-05-07 19:04 23.99105 120.49204 21339 ft 403 kts
2026-05-07 19:04 24.01869 120.49686 21057 ft 400 kts
2026-05-07 19:04 24.04611 120.50164 20778 ft 398 kts
2026-05-07 19:05 24.07339 120.50640 20488 ft 396 kts
2026-05-07 19:05 24.10050 120.51113 20207 ft 394 kts
2026-05-07 19:05 24.12745 120.51583 19930 ft 391 kts
2026-05-07 19:05 24.15415 120.52049 19660 ft 387 kts
2026-05-07 19:06 24.18030 120.52506 19285 ft 384 kts
2026-05-07 19:06 24.23282 120.53423 18433 ft 381 kts
2026-05-07 19:06 24.25904 120.53880 17940 ft 380 kts
2026-05-07 19:07 24.28510 120.54335 17473 ft 379 kts
2026-05-07 19:07 24.31108 120.54789 17079 ft 375 kts
2026-05-07 19:07 24.33683 120.55241 16974 ft 375 kts
2026-05-07 19:07 24.36253 120.55691 16867 ft 374 kts
2026-05-07 19:08 24.38810 120.56139 16533 ft 371 kts
2026-05-07 19:08 24.41352 120.56585 16125 ft 369 kts
2026-05-07 19:08 24.43876 120.57028 15700 ft 367 kts
2026-05-07 19:08 24.46389 120.57471 15268 ft 363 kts
2026-05-07 19:09 24.48801 120.58289 14754 ft 368 kts 23°
2026-05-07 19:09 24.50994 120.59753 14340 ft 370 kts 34°
2026-05-07 19:09 24.52944 120.61572 13978 ft 367 kts 40°
2026-05-07 19:09 24.54803 120.63487 13610 ft 365 kts 41°
2026-05-07 19:10 24.56635 120.65400 13189 ft 362 kts 41°
2026-05-07 19:10 24.58450 120.67296 12849 ft 357 kts 41°
2026-05-07 19:10 24.60217 120.69137 12751 ft 339 kts 41°
2026-05-07 19:10 24.61875 120.70862 12495 ft 319 kts 41°
2026-05-07 19:11 24.62933 120.71959 12225 ft 311 kts 41°
2026-05-07 19:11 24.64485 120.73565 11717 ft 304 kts 41°
2026-05-07 19:11 24.66015 120.75144 11139 ft 301 kts 41°
2026-05-07 19:11 24.67533 120.76709 10555 ft 298 kts 41°
2026-05-07 19:12 24.69040 120.78264 9999 ft 295 kts 41°
2026-05-07 19:12 24.70528 120.79799 9421 ft 291 kts 41°
2026-05-07 19:12 24.71998 120.81316 8805 ft 289 kts 42°
2026-05-07 19:12 24.73457 120.82825 8199 ft 286 kts 42°
2026-05-07 19:13 24.74898 120.84312 7844 ft 284 kts 42°
2026-05-07 19:13 24.76341 120.85803 7522 ft 284 kts 42°
2026-05-07 19:13 24.77776 120.87287 7200 ft 283 kts 42°
2026-05-07 19:13 24.79212 120.88772 6899 ft 283 kts 43°
2026-05-07 19:14 24.80641 120.90251 6575 ft 284 kts 43°
2026-05-07 19:14 24.82078 120.91737 6253 ft 283 kts 43°
2026-05-07 19:14 24.83519 120.93228 5915 ft 284 kts 43°
2026-05-07 19:14 24.84950 120.94711 5649 ft 281 kts 43°
2026-05-07 19:15 24.86357 120.96169 5513 ft 273 kts 43°
2026-05-07 19:15 24.87720 120.97582 5364 ft 266 kts 43°
2026-05-07 19:15 24.89058 120.98969 5104 ft 264 kts 43°
2026-05-07 19:15 24.90384 121.00348 4836 ft 261 kts 45°
2026-05-07 19:16 24.91630 121.01790 4559 ft 258 kts 48°
2026-05-07 19:16 24.92812 121.03268 4283 ft 256 kts 49°
2026-05-07 19:16 24.93961 121.04727 3940 ft 252 kts 49°
2026-05-07 19:16 24.95083 121.06150 3595 ft 238 kts 49°
2026-05-07 19:17 24.96140 121.07488 3301 ft 223 kts 49°
2026-05-07 19:17 24.97127 121.08736 3025 ft 209 kts 49°
2026-05-07 19:17 24.98065 121.09923 2764 ft 203 kts 49°
2026-05-07 19:17 24.98986 121.11090 2496 ft 199 kts 49°
2026-05-07 19:18 24.99870 121.12207 2293 ft 187 kts 49°
2026-05-07 19:18 25.00700 121.13260 2013 ft 176 kts 49°
2026-05-07 19:18 25.01447 121.14206 1804 ft 162 kts 49°
2026-05-07 19:18 25.02168 121.15117 1638 ft 154 kts 48°
2026-05-07 19:19 25.02872 121.16008 1408 ft 154 kts 49°
2026-05-07 19:19 25.03576 121.16901 1219 ft 155 kts 49°
2026-05-07 19:19 25.04283 121.17796 1015 ft 155 kts 49°
2026-05-07 19:19 25.04986 121.18685 817 ft 152 kts 49°
2026-05-07 19:20 25.05676 121.19552 635 ft 150 kts 49°
2026-05-07 19:20 25.06353 121.20416 410 ft 148 kts 48°
2026-05-07 19:20 25.07025 121.21266 237 ft 147 kts 48°
2026-05-07 19:20 25.07688 121.22112 106 ft 140 kts 49°
2026-05-07 19:21 25.08244 121.22811 107 ft 95 kts 49°
2026-05-07 19:21 25.08555 121.23208 107 ft 37 kts 49°
2026-05-07 19:21 25.08662 121.23365 107 ft 23 kts 61°
2026-05-07 19:21 25.08715 121.23528 107 ft 19 kts 80°
2026-05-07 19:22 25.08727 121.23626 106 ft 9 kts 90°
2026-05-07 19:22 25.08689 121.23674 107 ft 8 kts 174°
2026-05-07 19:22 25.08641 121.23641 106 ft 9 kts 229°
2026-05-07 19:22 25.08626 121.23620 106 ft 3 kts 230°
2026-05-07 19:23 25.08605 121.23593 108 ft 6 kts 230°
2026-05-07 19:23 25.08572 121.23550 107 ft 9 kts 229°
2026-05-07 19:23 25.08527 121.23494 106 ft 11 kts 229°
2026-05-07 19:23 25.08471 121.23422 106 ft 13 kts 230°
2026-05-07 19:24 25.08405 121.23339 109 ft 15 kts 229°
2026-05-07 19:24 25.08330 121.23243 106 ft 18 kts 229°
2026-05-07 19:24 25.08262 121.23157 105 ft 10 kts 229°
2026-05-07 19:24 25.08215 121.23130 107 ft 8 kts 175°
2026-05-07 19:25 25.08171 121.23169 108 ft 9 kts 108°
2026-05-07 19:25 25.08191 121.23231 107 ft 6 kts 52°
2026-05-07 19:25 25.08193 121.23272 106 ft 6 kts 111°
2026-05-07 19:25 25.08165 121.23308 106 ft 4 kts 139°
2026-05-07 19:26 25.08144 121.23328 108 ft 2 kts 139°
2026-05-07 19:26 25.08137 121.23335 107 ft 1 kts 139°
2026-05-07 19:26 25.08136 121.23336 106 ft 0 kts 139°